contact:dominique.lefevre@mio.osupytheas.fr, maurice.libes@osupytheas.fr, didier.mallarino@osupytheas.fr
Project:EMSO http://www.emso-fr.org/EMSO-France
Depth: 2436.0 m
Title:EMSO Ligure Ouest : Data MII capteur MICROCAT
DateTime_Computer,Latitude,Longitude,Temperature,Conductivity,Pressure,DateTime_Instrument
DateTime_Computer,Latitude,Longitude,degC,S m-1,dbar,DateTime_Instrument
2023-08-12T00:02:39Z,42.805,6.029,13.3031,4.60089,2470.693,2023-8-12T02:04:58Z
2023-08-12T00:05:42Z,42.805,6.029,13.3032,4.60091,2470.754,2023-8-12T02:08:01Z
2023-08-12T00:08:45Z,42.805,6.029,13.3032,4.60089,2470.74,2023-8-12T02:11:04Z
2023-08-12T00:11:48Z,42.805,6.029,13.3026,4.60092,2470.74,2023-8-12T02:14:07Z
2023-08-12T00:14:51Z,42.805,6.029,13.3029,4.60089,2470.717,2023-8-12T02:17:11Z
2023-08-12T00:17:55Z,42.805,6.029,13.3029,4.60090,2470.717,2023-8-12T02:20:14Z
2023-08-12T00:20:58Z,42.805,6.029,13.3027,4.60091,2470.74,2023-8-12T02:23:17Z
2023-08-12T00:24:01Z,42.805,6.029,13.3034,4.60089,2470.763,2023-8-12T02:26:20Z
2023-08-12T00:27:04Z,42.805,6.029,13.3031,4.60089,2470.754,2023-8-12T02:29:23Z
2023-08-12T00:30:07Z,42.805,6.029,13.3029,4.60092,2470.754,2023-8-12T02:32:26Z
2023-08-12T00:33:10Z,42.805,6.029,13.3028,4.60091,2470.717,2023-8-12T02:35:29Z
2023-08-12T00:36:13Z,42.805,6.029,13.3028,4.60089,2470.74,2023-8-12T02:38:32Z
2023-08-12T00:39:16Z,42.805,6.029,13.3031,4.60090,2470.74,2023-8-12T02:41:35Z
2023-08-12T00:42:19Z,42.805,6.029,13.3029,4.60088,2470.763,2023-8-12T02:44:38Z
2023-08-12T00:45:22Z,42.805,6.029,13.3034,4.60093,2470.74,2023-8-12T02:47:41Z
2023-08-12T00:48:25Z,42.805,6.029,13.3035,4.60090,2470.74,2023-8-12T02:50:44Z
2023-08-12T00:51:28Z,42.805,6.029,13.3035,4.60091,2470.74,2023-8-12T02:53:47Z
2023-08-12T00:54:32Z,42.805,6.029,13.3028,4.60093,2470.777,2023-8-12T02:56:51Z
2023-08-12T00:57:35Z,42.805,6.029,13.3027,4.60091,2470.74,2023-8-12T02:59:54Z
2023-08-12T01:00:38Z,42.805,6.029,13.3027,4.60089,2470.754,2023-8-12T03:02:57Z
2023-08-12T01:03:41Z,42.805,6.029,13.3029,4.60090,2470.74,2023-8-12T03:06:00Z
2023-08-12T01:06:44Z,42.805,6.029,13.3031,4.60089,2470.754,2023-8-12T03:09:03Z
2023-08-12T01:09:47Z,42.805,6.029,13.3028,4.60089,2470.717,2023-8-12T03:12:06Z
2023-08-12T01:12:50Z,42.805,6.029,13.3031,4.60088,2470.777,2023-8-12T03:15:09Z
2023-08-12T01:15:53Z,42.805,6.029,13.3029,4.60089,2470.74,2023-8-12T03:18:12Z
2023-08-12T01:18:56Z,42.805,6.029,13.3032,4.60090,2470.74,2023-8-12T03:21:15Z
2023-08-12T01:21:59Z,42.805,6.029,13.3031,4.60091,2470.74,2023-8-12T03:24:18Z
2023-08-12T01:25:02Z,42.805,6.029,13.3027,4.60089,2470.763,2023-8-12T03:27:21Z
2023-08-12T01:28:05Z,42.805,6.029,13.3024,4.60089,2470.763,2023-8-12T03:30:24Z
2023-08-12T01:31:09Z,42.805,6.029,13.3029,4.60088,2470.777,2023-8-12T03:33:28Z
2023-08-12T01:34:12Z,42.805,6.029,13.3034,4.60088,2470.74,2023-8-12T03:36:31Z
2023-08-12T01:37:15Z,42.805,6.029,13.3029,4.60089,2470.787,2023-8-12T03:39:34Z
2023-08-12T01:40:18Z,42.805,6.029,13.3031,4.60089,2470.763,2023-8-12T03:42:37Z
2023-08-12T01:43:21Z,42.805,6.029,13.3030,4.60089,2470.787,2023-8-12T03:45:40Z
2023-08-12T01:46:24Z,42.805,6.029,13.3033,4.60091,2470.74,2023-8-12T03:48:43Z
2023-08-12T01:49:27Z,42.805,6.029,13.3029,4.60088,2470.73,2023-8-12T03:51:46Z
2023-08-12T01:52:30Z,42.805,6.029,13.3031,4.60090,2470.763,2023-8-12T03:54:49Z
2023-08-12T01:55:33Z,42.805,6.029,13.3030,4.60091,2470.777,2023-8-12T03:57:52Z
2023-08-12T01:58:36Z,42.805,6.029,13.3030,4.60088,2470.74,2023-8-12T04:00:55Z
2023-08-12T02:01:39Z,42.805,6.029,13.3031,4.60092,2470.73,2023-8-12T04:03:58Z
2023-08-12T02:04:42Z,42.805,6.029,13.3034,4.60093,2470.74,2023-8-12T04:07:02Z
2023-08-12T02:07:46Z,42.805,6.029,13.3028,4.60089,2470.763,2023-8-12T04:10:05Z
2023-08-12T02:10:49Z,42.805,6.029,13.3031,4.60090,2470.74,2023-8-12T04:13:08Z
2023-08-12T02:13:52Z,42.805,6.029,13.3029,4.60090,2470.74,2023-8-12T04:16:11Z
2023-08-12T02:16:55Z,42.805,6.029,13.3031,4.60089,2470.74,2023-8-12T04:19:14Z
2023-08-12T02:19:58Z,42.805,6.029,13.3029,4.60090,2470.763,2023-8-12T04:22:17Z
2023-08-12T02:23:01Z,42.805,6.029,13.3026,4.60088,2470.787,2023-8-12T04:25:20Z
2023-08-12T02:26:04Z,42.805,6.029,13.3034,4.60089,2470.74,2023-8-12T04:28:23Z
2023-08-12T02:29:07Z,42.805,6.029,13.3026,4.60094,2470.763,2023-8-12T04:31:26Z
2023-08-12T02:32:10Z,42.805,6.029,13.3032,4.60090,2470.74,2023-8-12T04:34:29Z
2023-08-12T02:35:13Z,42.805,6.029,13.3032,4.60089,2470.754,2023-8-12T04:37:32Z
2023-08-12T02:38:16Z,42.805,6.029,13.3029,4.60089,2470.73,2023-8-12T04:40:35Z
2023-08-12T02:41:19Z,42.805,6.029,13.3027,4.60089,2470.763,2023-8-12T04:43:39Z
2023-08-12T02:44:23Z,42.805,6.029,13.3033,4.60089,2470.74,2023-8-12T04:46:42Z
2023-08-12T02:47:26Z,42.805,6.029,13.3028,4.60090,2470.777,2023-8-12T04:49:45Z
2023-08-12T02:50:29Z,42.805,6.029,13.3031,4.60089,2470.73,2023-8-12T04:52:48Z
2023-08-12T02:53:32Z,42.805,6.029,13.3030,4.60095,2470.693,2023-8-12T04:55:51Z
2023-08-12T02:56:35Z,42.805,6.029,13.3027,4.60090,2470.74,2023-8-12T04:58:54Z
2023-08-12T02:59:38Z,42.805,6.029,13.3028,4.60092,2470.8,2023-8-12T05:01:57Z
2023-08-12T03:02:41Z,42.805,6.029,13.3031,4.60090,2470.763,2023-8-12T05:05:00Z
2023-08-12T03:05:44Z,42.805,6.029,13.3030,4.60090,2470.754,2023-8-12T05:08:03Z
2023-08-12T03:08:47Z,42.805,6.029,13.3029,4.60097,2470.763,2023-8-12T05:11:06Z
2023-08-12T03:11:50Z,42.805,6.029,13.3031,4.60090,2470.787,2023-8-12T05:14:09Z
2023-08-12T03:14:53Z,42.805,6.029,13.3029,4.60090,2470.777,2023-8-12T05:17:12Z
2023-08-12T03:17:56Z,42.805,6.029,13.3030,4.60091,2470.777,2023-8-12T05:20:16Z
2023-08-12T03:21:00Z,42.805,6.029,13.3031,4.60091,2470.763,2023-8-12T05:23:19Z
2023-08-12T03:24:03Z,42.805,6.029,13.3032,4.60092,2470.787,2023-8-12T05:26:22Z
2023-08-12T03:27:06Z,42.805,6.029,13.3032,4.60092,2470.787,2023-8-12T05:29:25Z
2023-08-12T03:30:09Z,42.805,6.029,13.3031,4.60089,2470.763,2023-8-12T05:32:28Z
2023-08-12T03:33:12Z,42.805,6.029,13.3034,4.60092,2470.754,2023-8-12T05:35:31Z
2023-08-12T03:36:15Z,42.805,6.029,13.3030,4.60096,2470.8,2023-8-12T05:38:34Z
2023-08-12T03:39:18Z,42.805,6.029,13.3028,4.60089,2470.777,2023-8-12T05:41:37Z
2023-08-12T03:42:21Z,42.805,6.029,13.3027,4.60089,2470.763,2023-8-12T05:44:40Z
2023-08-12T03:45:24Z,42.805,6.029,13.3028,4.60089,2470.777,2023-8-12T05:47:43Z
2023-08-12T03:48:27Z,42.805,6.029,13.3033,4.60089,2470.763,2023-8-12T05:50:46Z
2023-08-12T03:51:30Z,42.805,6.029,13.3031,4.60091,2470.763,2023-8-12T05:53:49Z
2023-08-12T03:54:33Z,42.805,6.029,13.3025,4.60089,2470.763,2023-8-12T05:56:53Z
2023-08-12T03:57:37Z,42.805,6.029,13.3029,4.60089,2470.74,2023-8-12T05:59:56Z
2023-08-12T04:00:40Z,42.805,6.029,13.3029,4.60094,2470.8,2023-8-12T06:02:59Z
2023-08-12T04:03:43Z,42.805,6.029,13.3031,4.60090,2470.763,2023-8-12T06:06:02Z
2023-08-12T04:06:46Z,42.805,6.029,13.3028,4.60090,2470.763,2023-8-12T06:09:05Z
2023-08-12T04:09:49Z,42.805,6.029,13.3029,4.60093,2470.777,2023-8-12T06:12:08Z
2023-08-12T04:12:52Z,42.805,6.029,13.3032,4.60090,2470.763,2023-8-12T06:15:11Z
2023-08-12T04:15:55Z,42.805,6.029,13.3029,4.60090,2470.763,2023-8-12T06:18:14Z
2023-08-12T04:18:58Z,42.805,6.029,13.3030,4.60091,2470.8,2023-8-12T06:21:17Z
2023-08-12T04:22:01Z,42.805,6.029,13.3035,4.60097,2470.763,2023-8-12T06:24:20Z
2023-08-12T04:25:04Z,42.805,6.029,13.3029,4.60092,2470.787,2023-8-12T06:27:23Z
2023-08-12T04:28:07Z,42.805,6.029,13.3032,4.60092,2470.763,2023-8-12T06:30:26Z
2023-08-12T04:31:10Z,42.805,6.029,13.3039,4.60091,2470.787,2023-8-12T06:33:30Z
2023-08-12T04:34:14Z,42.805,6.029,13.3031,4.60094,2470.726,2023-8-12T06:36:33Z
2023-08-12T04:37:17Z,42.805,6.029,13.3029,4.60110,2470.763,2023-8-12T06:39:36Z
2023-08-12T04:40:20Z,42.805,6.029,13.3051,4.60140,2470.763,2023-8-12T06:42:39Z
2023-08-12T04:43:23Z,42.805,6.029,13.3054,4.60150,2470.763,2023-8-12T06:45:42Z
2023-08-12T04:46:26Z,42.805,6.029,13.3049,4.60140,2470.754,2023-8-12T06:48:45Z
2023-08-12T04:49:29Z,42.805,6.029,13.3050,4.60178,2470.787,2023-8-12T06:51:48Z
2023-08-12T04:52:32Z,42.805,6.029,13.3046,4.60148,2470.787,2023-8-12T06:54:51Z
2023-08-12T04:55:35Z,42.805,6.029,13.3045,4.60157,2470.777,2023-8-12T06:57:54Z
2023-08-12T04:58:38Z,42.805,6.029,13.3057,4.60155,2470.754,2023-8-12T07:00:57Z
2023-08-12T05:01:41Z,42.805,6.029,13.3058,4.60144,2470.8,2023-8-12T07:04:00Z
2023-08-12T05:04:44Z,42.805,6.029,13.3058,4.60142,2470.787,2023-8-12T07:07:03Z
2023-08-12T05:07:47Z,42.805,6.029,13.3058,4.60174,2470.787,2023-8-12T07:10:07Z
2023-08-12T05:10:51Z,42.805,6.029,13.3052,4.60164,2470.8,2023-8-12T07:13:10Z
2023-08-12T05:13:54Z,42.805,6.029,13.3055,4.60150,2470.763,2023-8-12T07:16:13Z
2023-08-12T05:16:57Z,42.805,6.029,13.3046,4.60152,2470.763,2023-8-12T07:19:16Z
2023-08-12T05:20:00Z,42.805,6.029,13.3048,4.60136,2470.8,2023-8-12T07:22:19Z
2023-08-12T05:23:03Z,42.805,6.029,13.3043,4.60148,2470.787,2023-8-12T07:25:22Z
2023-08-12T05:26:06Z,42.805,6.029,13.3049,4.60140,2470.763,2023-8-12T07:28:25Z
2023-08-12T05:29:09Z,42.805,6.029,13.3052,4.60147,2470.73,2023-8-12T07:31:28Z
2023-08-12T05:32:12Z,42.805,6.029,13.3050,4.60133,2470.754,2023-8-12T07:34:31Z
2023-08-12T05:35:15Z,42.805,6.029,13.3045,4.60122,2470.763,2023-8-12T07:37:34Z
2023-08-12T05:38:18Z,42.805,6.029,13.3050,4.60144,2470.777,2023-8-12T07:40:37Z
2023-08-12T05:41:21Z,42.805,6.029,13.3048,4.60140,2470.74,2023-8-12T07:43:40Z
2023-08-12T05:44:24Z,42.805,6.029,13.3046,4.60139,2470.763,2023-8-12T07:46:44Z
2023-08-12T05:47:28Z,42.805,6.029,13.3046,4.60152,2470.754,2023-8-12T07:49:47Z
2023-08-12T05:50:31Z,42.805,6.029,13.3054,4.60136,2470.777,2023-8-12T07:52:50Z
2023-08-12T05:53:34Z,42.805,6.029,13.3055,4.60157,2470.777,2023-8-12T07:55:53Z
2023-08-12T05:56:37Z,42.805,6.029,13.3053,4.60144,2470.777,2023-8-12T07:58:56Z
2023-08-12T05:59:40Z,42.805,6.029,13.3046,4.60152,2470.777,2023-8-12T08:01:59Z
2023-08-12T06:02:43Z,42.805,6.029,13.3041,4.60140,2470.74,2023-8-12T08:05:02Z
2023-08-12T06:05:46Z,42.805,6.029,13.3052,4.60167,2470.763,2023-8-12T08:08:05Z
2023-08-12T06:08:49Z,42.805,6.029,13.3046,4.60170,2470.74,2023-8-12T08:11:08Z
2023-08-12T06:11:52Z,42.805,6.029,13.3045,4.60164,2470.754,2023-8-12T08:14:11Z
2023-08-12T06:14:55Z,42.805,6.029,13.3060,4.60173,2470.754,2023-8-12T08:17:14Z
2023-08-12T06:17:58Z,42.805,6.029,13.3040,4.60172,2470.763,2023-8-12T08:20:17Z
2023-08-12T06:21:01Z,42.805,6.029,13.3046,4.60155,2470.717,2023-8-12T08:23:20Z
2023-08-12T06:24:04Z,42.805,6.029,13.3045,4.60140,2470.717,2023-8-12T08:26:24Z
2023-08-12T06:27:08Z,42.805,6.029,13.3044,4.60158,2470.754,2023-8-12T08:29:27Z
2023-08-12T06:30:11Z,42.805,6.029,13.3053,4.60142,2470.74,2023-8-12T08:32:30Z
2023-08-12T06:33:14Z,42.805,6.029,13.3039,4.60148,2470.717,2023-8-12T08:35:33Z
2023-08-12T06:36:17Z,42.805,6.029,13.3048,4.60149,2470.717,2023-8-12T08:38:36Z
2023-08-12T06:39:21Z,42.805,6.029,13.3034,4.60158,2470.777,2023-8-12T08:41:40Z
2023-08-12T06:42:24Z,42.805,6.029,13.3045,4.60119,2470.693,2023-8-12T08:44:43Z
2023-08-12T06:45:27Z,42.805,6.029,13.3058,4.60157,2470.754,2023-8-12T08:47:46Z
2023-08-12T06:48:30Z,42.805,6.029,13.3041,4.60148,2470.74,2023-8-12T08:50:49Z
2023-08-12T06:51:33Z,42.805,6.029,13.3078,4.60154,2470.777,2023-8-12T08:53:52Z
2023-08-12T06:54:36Z,42.805,6.029,13.3041,4.60157,2470.74,2023-8-12T08:56:55Z
2023-08-12T06:57:39Z,42.805,6.029,13.3041,4.60138,2470.74,2023-8-12T08:59:58Z
2023-08-12T07:00:42Z,42.805,6.029,13.3043,4.60154,2470.777,2023-8-12T09:03:01Z
2023-08-12T07:03:45Z,42.805,6.029,13.3041,4.60151,2470.74,2023-8-12T09:06:04Z
2023-08-12T07:06:48Z,42.805,6.029,13.3048,4.60152,2470.754,2023-8-12T09:09:07Z
2023-08-12T07:09:51Z,42.805,6.029,13.3049,4.60150,2470.73,2023-8-12T09:12:10Z
2023-08-12T07:12:54Z,42.805,6.029,13.3055,4.60146,2470.73,2023-8-12T09:15:13Z
2023-08-12T07:15:58Z,42.805,6.029,13.3046,4.60150,2470.73,2023-8-12T09:18:17Z
2023-08-12T07:19:01Z,42.805,6.029,13.3059,4.60157,2470.73,2023-8-12T09:21:20Z
2023-08-12T07:22:04Z,42.805,6.029,13.3052,4.60150,2470.754,2023-8-12T09:24:23Z
2023-08-12T07:25:07Z,42.805,6.029,13.3058,4.60144,2470.74,2023-8-12T09:27:26Z
2023-08-12T07:28:10Z,42.805,6.029,13.3051,4.60168,2470.74,2023-8-12T09:30:29Z
2023-08-12T07:31:13Z,42.805,6.029,13.3054,4.60154,2470.73,2023-8-12T09:33:32Z
2023-08-12T07:34:16Z,42.805,6.029,13.3041,4.60160,2470.74,2023-8-12T09:36:35Z
2023-08-12T07:37:19Z,42.805,6.029,13.3040,4.60154,2470.717,2023-8-12T09:39:38Z
2023-08-12T07:40:22Z,42.805,6.029,13.3044,4.60131,2470.754,2023-8-12T09:42:41Z
2023-08-12T07:43:25Z,42.805,6.029,13.3043,4.60127,2470.74,2023-8-12T09:45:44Z
2023-08-12T07:46:28Z,42.805,6.029,13.3039,4.60147,2470.717,2023-8-12T09:48:47Z
2023-08-12T07:49:31Z,42.805,6.029,13.3046,4.60144,2470.754,2023-8-12T09:51:51Z
2023-08-12T07:52:35Z,42.805,6.029,13.3041,4.60129,2470.73,2023-8-12T09:54:54Z
2023-08-12T07:55:38Z,42.805,6.029,13.3041,4.60130,2470.717,2023-8-12T09:57:57Z
2023-08-12T07:58:41Z,42.805,6.029,13.3056,4.60149,2470.717,2023-8-12T10:01:00Z
2023-08-12T08:01:44Z,42.805,6.029,13.3053,4.60127,2470.73,2023-8-12T10:04:03Z
2023-08-12T08:04:47Z,42.805,6.029,13.3044,4.60122,2470.693,2023-8-12T10:07:06Z
2023-08-12T08:07:50Z,42.805,6.029,13.3040,4.60125,2470.74,2023-8-12T10:10:09Z
2023-08-12T08:10:53Z,42.805,6.029,13.3046,4.60139,2470.717,2023-8-12T10:13:12Z
2023-08-12T08:13:56Z,42.805,6.029,13.3051,4.60169,2470.717,2023-8-12T10:16:15Z
2023-08-12T08:16:59Z,42.805,6.029,13.3042,4.60138,2470.717,2023-8-12T10:19:18Z
2023-08-12T08:20:02Z,42.805,6.029,13.3041,4.60137,2470.707,2023-8-12T10:22:21Z
2023-08-12T08:23:05Z,42.805,6.029,13.3046,4.60142,2470.707,2023-8-12T10:25:24Z
2023-08-12T08:26:08Z,42.805,6.029,13.3037,4.60142,2470.717,2023-8-12T10:28:28Z
2023-08-12T08:29:12Z,42.805,6.029,13.3046,4.60140,2470.717,2023-8-12T10:31:31Z
2023-08-12T08:32:14Z,42.805,6.029,13.3053,4.60153,2470.693,2023-8-12T10:34:33Z
2023-08-12T08:35:17Z,42.805,6.029,13.3041,4.60141,2470.717,2023-8-12T10:37:36Z
2023-08-12T08:38:20Z,42.805,6.029,13.3061,4.60150,2470.717,2023-8-12T10:40:39Z
2023-08-12T08:41:23Z,42.805,6.029,13.3074,4.60127,2470.717,2023-8-12T10:43:43Z
2023-08-12T08:44:27Z,42.805,6.029,13.3065,4.60148,2470.73,2023-8-12T10:46:46Z
2023-08-12T08:47:30Z,42.805,6.029,13.3064,4.60170,2470.707,2023-8-12T10:49:49Z
2023-08-12T08:50:33Z,42.805,6.029,13.3056,4.60163,2470.707,2023-8-12T10:52:52Z
2023-08-12T08:53:36Z,42.805,6.029,13.3073,4.60199,2470.717,2023-8-12T10:55:55Z
2023-08-12T08:56:39Z,42.805,6.029,13.3085,4.60174,2470.707,2023-8-12T10:58:58Z
2023-08-12T08:59:42Z,42.805,6.029,13.3076,4.60149,2470.707,2023-8-12T11:02:01Z
2023-08-12T09:02:45Z,42.805,6.029,13.3085,4.60169,2470.684,2023-8-12T11:05:04Z
2023-08-12T09:05:48Z,42.805,6.029,13.3068,4.60167,2470.693,2023-8-12T11:08:07Z
2023-08-12T09:08:51Z,42.805,6.029,13.3087,4.60153,2470.693,2023-8-12T11:11:10Z
2023-08-12T09:11:54Z,42.805,6.029,13.3052,4.60175,2470.717,2023-8-12T11:14:13Z
2023-08-12T09:14:57Z,42.805,6.029,13.3066,4.60172,2470.707,2023-8-12T11:17:16Z
2023-08-12T09:18:00Z,42.805,6.029,13.3106,4.60169,2470.693,2023-8-12T11:20:20Z
2023-08-12T09:21:04Z,42.805,6.029,13.3065,4.60180,2470.67,2023-8-12T11:23:23Z
2023-08-12T09:24:07Z,42.805,6.029,13.3083,4.60161,2470.693,2023-8-12T11:26:26Z
2023-08-12T09:27:10Z,42.805,6.029,13.3089,4.60193,2470.684,2023-8-12T11:29:29Z
2023-08-12T09:30:13Z,42.805,6.029,13.3098,4.60185,2470.693,2023-8-12T11:32:32Z
2023-08-12T09:33:16Z,42.805,6.029,13.3096,4.60175,2470.67,2023-8-12T11:35:35Z
2023-08-12T09:36:19Z,42.805,6.029,13.3082,4.60153,2470.693,2023-8-12T11:38:38Z
2023-08-12T09:39:22Z,42.805,6.029,13.3072,4.60152,2470.656,2023-8-12T11:41:41Z
2023-08-12T09:42:25Z,42.805,6.029,13.3100,4.60140,2470.684,2023-8-12T11:44:44Z
2023-08-12T09:45:28Z,42.805,6.029,13.3070,4.60148,2470.646,2023-8-12T11:47:47Z
2023-08-12T09:48:31Z,42.805,6.029,13.3108,4.60125,2470.646,2023-8-12T11:50:50Z
2023-08-12T09:51:34Z,42.805,6.029,13.3051,4.60132,2470.67,2023-8-12T11:53:54Z
2023-08-12T09:54:38Z,42.805,6.029,13.3054,4.60112,2470.707,2023-8-12T11:56:57Z
2023-08-12T09:57:41Z,42.805,6.029,13.3052,4.60118,2470.684,2023-8-12T12:00:00Z
2023-08-12T10:00:44Z,42.805,6.029,13.3061,4.60132,2470.661,2023-8-12T12:03:03Z
2023-08-12T10:03:47Z,42.805,6.029,13.3047,4.60147,2470.646,2023-8-12T12:06:06Z
2023-08-12T10:06:50Z,42.805,6.029,13.3046,4.60130,2470.661,2023-8-12T12:09:09Z
2023-08-12T10:09:53Z,42.805,6.029,13.3060,4.60130,2470.646,2023-8-12T12:12:12Z
2023-08-12T10:12:56Z,42.805,6.029,13.3077,4.60147,2470.661,2023-8-12T12:15:15Z
2023-08-12T10:15:59Z,42.805,6.029,13.3059,4.60142,2470.624,2023-8-12T12:18:18Z
2023-08-12T10:19:02Z,42.805,6.029,13.3063,4.60146,2470.684,2023-8-12T12:21:21Z
2023-08-12T10:22:05Z,42.805,6.029,13.3061,4.60122,2470.67,2023-8-12T12:24:24Z
2023-08-12T10:25:08Z,42.805,6.029,13.3098,4.60137,2470.646,2023-8-12T12:27:27Z
2023-08-12T10:28:11Z,42.805,6.029,13.3094,4.60122,2470.637,2023-8-12T12:30:31Z
2023-08-12T10:31:15Z,42.805,6.029,13.3073,4.60125,2470.624,2023-8-12T12:33:34Z
2023-08-12T10:34:18Z,42.805,6.029,13.3073,4.60105,2470.67,2023-8-12T12:36:37Z
2023-08-12T10:37:21Z,42.805,6.029,13.3079,4.60117,2470.646,2023-8-12T12:39:40Z
2023-08-12T10:40:24Z,42.805,6.029,13.3079,4.60112,2470.693,2023-8-12T12:42:43Z
2023-08-12T10:43:27Z,42.805,6.029,13.3065,4.60127,2470.67,2023-8-12T12:45:46Z
2023-08-12T10:46:30Z,42.805,6.029,13.3069,4.60122,2470.661,2023-8-12T12:48:49Z
2023-08-12T10:49:33Z,42.805,6.029,13.3068,4.60127,2470.624,2023-8-12T12:51:52Z
2023-08-12T10:52:36Z,42.805,6.029,13.3073,4.60117,2470.624,2023-8-12T12:54:55Z
2023-08-12T10:55:39Z,42.805,6.029,13.3058,4.60120,2470.637,2023-8-12T12:57:58Z
2023-08-12T10:58:42Z,42.805,6.029,13.3096,4.60132,2470.661,2023-8-12T13:01:01Z
2023-08-12T11:01:45Z,42.805,6.029,13.3090,4.60133,2470.646,2023-8-12T13:04:05Z
2023-08-12T11:04:49Z,42.805,6.029,13.3077,4.60133,2470.684,2023-8-12T13:07:08Z
2023-08-12T11:07:52Z,42.805,6.029,13.3085,4.60137,2470.684,2023-8-12T13:10:11Z
2023-08-12T11:10:55Z,42.805,6.029,13.3102,4.60127,2470.661,2023-8-12T13:13:14Z
2023-08-12T11:13:58Z,42.805,6.029,13.3099,4.60121,2470.684,2023-8-12T13:16:17Z
2023-08-12T11:17:01Z,42.805,6.029,13.3082,4.60132,2470.624,2023-8-12T13:19:20Z
2023-08-12T11:20:04Z,42.805,6.029,13.3084,4.60122,2470.684,2023-8-12T13:22:23Z
2023-08-12T11:23:07Z,42.805,6.029,13.3073,4.60119,2470.67,2023-8-12T13:25:26Z
2023-08-12T11:26:10Z,42.805,6.029,13.3071,4.60132,2470.684,2023-8-12T13:28:29Z
2023-08-12T11:29:13Z,42.805,6.029,13.3073,4.60132,2470.684,2023-8-12T13:31:32Z
2023-08-12T11:32:16Z,42.805,6.029,13.3073,4.60126,2470.693,2023-8-12T13:34:35Z
2023-08-12T11:35:19Z,42.805,6.029,13.3066,4.60138,2470.67,2023-8-12T13:37:38Z
2023-08-12T11:38:23Z,42.805,6.029,13.3076,4.60121,2470.684,2023-8-12T13:40:42Z
2023-08-12T11:41:26Z,42.805,6.029,13.3069,4.60128,2470.707,2023-8-12T13:43:45Z
2023-08-12T11:44:29Z,42.805,6.029,13.3075,4.60126,2470.693,2023-8-12T13:46:48Z
2023-08-12T11:47:32Z,42.805,6.029,13.3034,4.60137,2470.67,2023-8-12T13:49:51Z
2023-08-12T11:50:35Z,42.805,6.029,13.3044,4.60119,2470.707,2023-8-12T13:52:54Z
2023-08-12T11:53:38Z,42.805,6.029,13.3036,4.60123,2470.684,2023-8-12T13:55:57Z
2023-08-12T11:56:41Z,42.805,6.029,13.3062,4.60147,2470.646,2023-8-12T13:59:00Z
2023-08-12T11:59:44Z,42.805,6.029,13.3080,4.60129,2470.693,2023-8-12T14:02:03Z
2023-08-12T12:02:47Z,42.805,6.029,13.3081,4.60132,2470.684,2023-8-12T14:05:06Z
2023-08-12T12:05:50Z,42.805,6.029,13.3080,4.60122,2470.646,2023-8-12T14:08:09Z
2023-08-12T12:08:53Z,42.805,6.029,13.3072,4.60114,2470.693,2023-8-12T14:11:12Z
2023-08-12T12:11:56Z,42.805,6.029,13.3067,4.60125,2470.684,2023-8-12T14:14:16Z
2023-08-12T12:15:00Z,42.805,6.029,13.3063,4.60123,2470.684,2023-8-12T14:17:19Z
2023-08-12T12:18:03Z,42.805,6.029,13.3053,4.60133,2470.684,2023-8-12T14:20:22Z
2023-08-12T12:21:06Z,42.805,6.029,13.3046,4.60129,2470.684,2023-8-12T14:23:25Z
2023-08-12T12:24:09Z,42.805,6.029,13.3028,4.60129,2470.67,2023-8-12T14:26:28Z
2023-08-12T12:27:12Z,42.805,6.029,13.3029,4.60109,2470.661,2023-8-12T14:29:31Z
2023-08-12T12:30:15Z,42.805,6.029,13.3029,4.60102,2470.684,2023-8-12T14:32:34Z
2023-08-12T12:33:19Z,42.805,6.029,13.3031,4.60104,2470.684,2023-8-12T14:35:38Z
2023-08-12T12:36:22Z,42.805,6.029,13.3029,4.60106,2470.693,2023-8-12T14:38:41Z
2023-08-12T12:39:25Z,42.805,6.029,13.3030,4.60102,2470.717,2023-8-12T14:41:44Z
2023-08-12T12:42:28Z,42.805,6.029,13.3029,4.60099,2470.693,2023-8-12T14:44:47Z
2023-08-12T12:45:31Z,42.805,6.029,13.3024,4.60099,2470.684,2023-8-12T14:47:50Z
2023-08-12T12:48:34Z,42.805,6.029,13.3029,4.60096,2470.707,2023-8-12T14:50:53Z
2023-08-12T12:51:37Z,42.805,6.029,13.3026,4.60097,2470.684,2023-8-12T14:53:56Z
2023-08-12T12:54:40Z,42.805,6.029,13.3029,4.60096,2470.717,2023-8-12T14:56:59Z
2023-08-12T12:57:43Z,42.805,6.029,13.3031,4.60099,2470.693,2023-8-12T15:00:02Z
2023-08-12T13:00:46Z,42.805,6.029,13.3026,4.60094,2470.67,2023-8-12T15:03:05Z
2023-08-12T13:03:49Z,42.805,6.029,13.3024,4.60093,2470.693,2023-8-12T15:06:08Z
2023-08-12T13:06:53Z,42.805,6.029,13.3029,4.60093,2470.73,2023-8-12T15:09:12Z
2023-08-12T13:09:56Z,42.805,6.029,13.3031,4.60095,2470.707,2023-8-12T15:12:15Z
2023-08-12T13:12:59Z,42.805,6.029,13.3032,4.60094,2470.707,2023-8-12T15:15:18Z
2023-08-12T13:16:02Z,42.805,6.029,13.3030,4.60094,2470.656,2023-8-12T15:18:21Z
2023-08-12T13:19:05Z,42.805,6.029,13.3032,4.60094,2470.717,2023-8-12T15:21:24Z
2023-08-12T13:22:08Z,42.805,6.029,13.3029,4.60094,2470.693,2023-8-12T15:24:27Z
2023-08-12T13:25:11Z,42.805,6.029,13.3026,4.60091,2470.73,2023-8-12T15:27:30Z
2023-08-12T13:28:14Z,42.805,6.029,13.3026,4.60092,2470.693,2023-8-12T15:30:33Z
2023-08-12T13:31:17Z,42.805,6.029,13.3031,4.60095,2470.754,2023-8-12T15:33:36Z
2023-08-12T13:34:20Z,42.805,6.029,13.3028,4.60093,2470.693,2023-8-12T15:36:39Z
2023-08-12T13:37:23Z,42.805,6.029,13.3028,4.60092,2470.693,2023-8-12T15:39:42Z
2023-08-12T13:40:27Z,42.805,6.029,13.3029,4.60094,2470.707,2023-8-12T15:42:46Z
2023-08-12T13:43:30Z,42.805,6.029,13.3026,4.60092,2470.73,2023-8-12T15:45:49Z
2023-08-12T13:46:33Z,42.805,6.029,13.3030,4.60092,2470.717,2023-8-12T15:48:52Z
2023-08-12T13:49:36Z,42.805,6.029,13.3026,4.60090,2470.74,2023-8-12T15:51:55Z
2023-08-12T13:52:39Z,42.805,6.029,13.3027,4.60090,2470.717,2023-8-12T15:54:58Z
2023-08-12T13:55:42Z,42.805,6.029,13.3029,4.60092,2470.73,2023-8-12T15:58:01Z
2023-08-12T13:58:45Z,42.805,6.029,13.3026,4.60092,2470.717,2023-8-12T16:01:04Z
2023-08-12T14:01:48Z,42.805,6.029,13.3029,4.60092,2470.707,2023-8-12T16:04:07Z
2023-08-12T14:04:51Z,42.805,6.029,13.3031,4.60092,2470.74,2023-8-12T16:07:10Z
2023-08-12T14:07:54Z,42.805,6.029,13.3026,4.60094,2470.73,2023-8-12T16:10:13Z
2023-08-12T14:10:57Z,42.805,6.029,13.3029,4.60092,2470.754,2023-8-12T16:13:16Z
2023-08-12T14:14:00Z,42.805,6.029,13.3031,4.60089,2470.74,2023-8-12T16:16:20Z
2023-08-12T14:17:04Z,42.805,6.029,13.3032,4.60091,2470.74,2023-8-12T16:19:23Z
2023-08-12T14:20:07Z,42.805,6.029,13.3026,4.60091,2470.777,2023-8-12T16:22:26Z
2023-08-12T14:23:10Z,42.805,6.029,13.3031,4.60092,2470.777,2023-8-12T16:25:29Z
2023-08-12T14:26:13Z,42.805,6.029,13.3029,4.60092,2470.754,2023-8-12T16:28:32Z
2023-08-12T14:29:16Z,42.805,6.029,13.3029,4.60092,2470.763,2023-8-12T16:31:35Z
2023-08-12T14:32:19Z,42.805,6.029,13.3031,4.60091,2470.763,2023-8-12T16:34:39Z
2023-08-12T14:35:23Z,42.805,6.029,13.3028,4.60092,2470.777,2023-8-12T16:37:42Z
2023-08-12T14:38:26Z,42.805,6.029,13.3030,4.60093,2470.74,2023-8-12T16:40:45Z
2023-08-12T14:41:29Z,42.805,6.029,13.3029,4.60092,2470.777,2023-8-12T16:43:48Z
2023-08-12T14:44:32Z,42.805,6.029,13.3024,4.60092,2470.763,2023-8-12T16:46:51Z
2023-08-12T14:47:35Z,42.805,6.029,13.3031,4.60092,2470.74,2023-8-12T16:49:54Z
2023-08-12T14:50:38Z,42.805,6.029,13.3031,4.60093,2470.754,2023-8-12T16:52:57Z
2023-08-12T14:53:41Z,42.805,6.029,13.3032,4.60094,2470.74,2023-8-12T16:56:00Z
2023-08-12T14:56:44Z,42.805,6.029,13.3031,4.60092,2470.754,2023-8-12T16:59:03Z
2023-08-12T14:59:47Z,42.805,6.029,13.3027,4.60092,2470.763,2023-8-12T17:02:06Z
2023-08-12T15:02:50Z,42.805,6.029,13.3029,4.60092,2470.74,2023-8-12T17:05:09Z
2023-08-12T15:05:53Z,42.805,6.029,13.3031,4.60092,2470.777,2023-8-12T17:08:12Z
2023-08-12T15:08:56Z,42.805,6.029,13.3032,4.60092,2470.8,2023-8-12T17:11:16Z
2023-08-12T15:12:00Z,42.805,6.029,13.3028,4.60092,2470.777,2023-8-12T17:14:19Z
2023-08-12T15:15:03Z,42.805,6.029,13.3028,4.60090,2470.8,2023-8-12T17:17:22Z